STARLINK-2385 (47804 NORAD) Tracking and Keplerian Element Data

This shows tracking and keplerian element data for the satellite.

Feedback or suggestion? Click here.




ElementValue
Catalog47804
NameSTARLINK-2385
Epoch Orbit187
Epoch Day170.58334491
Epoch Year2021
RAAN52.4983
Inclination53.0471
Eccentricity0.0001183
Argument of Perigee90.172
Mean Anonmoly216.6886
Mean Motion15.3299671
Decay Rate-0.01073378
L11 47804U 21018T 21170.58334491 -.01073378 00000-0 -36212-1 0 9999
L22 47804 53.0471 52.4983 0001183 90.1720 216.6886 15.32996710 1874

Live tracking and technical data element details for STARLINK-2385 (NORAD 47804). STARLINK-2385 can be tracked NOW for your location showing map with azimuth and elevation plus other details from your city location.

Track the satellite on the map from your city or location and see movement details for azimuth, elevation, latitude, longitude, range, height, and movement on the map or in text.







IsCatalogInMostPopularTable: catalog: 47804, numindb: 40
Update: records affected: 1



GetName: 47804 STARLINK-2385

Hit Count: updated at: Mon, 21 Jun 2021 04:01:25 GMT